TimeEDT,TemperatureF,Dew PointF,Humidity,Sea Level PressureIn,VisibilityMPH,Wind Direction,Wind SpeedMPH,Gust SpeedMPH,PrecipitationIn,Events,Conditions,WindDirDegrees,DateUTC
12:12 AM,69.8,69.8,100,29.80,2.5,Calm,Calm,-,N/A,,Mostly Cloudy,0,2013-09-01 04:12:00
12:21 AM,69.8,69.8,100,29.80,4.0,SSW,3.5,-,N/A,,Mostly Cloudy,210,2013-09-01 04:21:00
12:51 AM,69.8,69.8,100,29.79,2.5,Calm,Calm,-,N/A,,Mostly Cloudy,0,2013-09-01 04:51:00
12:54 AM,70.0,68.0,93,29.79,2.5,Calm,Calm,-,N/A,,Mostly Cloudy,0,2013-09-01 04:54:00
1:15 AM,69.8,68.0,94,29.79,3.0,Calm,Calm,-,N/A,,Overcast,0,2013-09-01 05:15:00
1:54 AM,70.0,69.1,97,29.77,4.0,Calm,Calm,-,N/A,,Overcast,0,2013-09-01 05:54:00
2:54 AM,70.0,69.1,97,29.78,3.0,Calm,Calm,-,N/A,,Overcast,0,2013-09-01 06:54:00
3:00 AM,69.8,69.8,100,29.77,2.5,Calm,Calm,-,N/A,,Overcast,0,2013-09-01 07:00:00
3:15 AM,69.8,69.8,100,29.77,2.0,Calm,Calm,-,N/A,,Overcast,0,2013-09-01 07:15:00
3:20 AM,69.8,69.8,100,29.77,1.8,Calm,Calm,-,N/A,,Overcast,0,2013-09-01 07:20:00
3:29 AM,69.8,68.0,94,29.77,1.0,Calm,Calm,-,N/A,,Overcast,0,2013-09-01 07:29:00
3:35 AM,68.0,68.0,100,29.77,1.0,Calm,Calm,-,N/A,,Overcast,0,2013-09-01 07:35:00
3:42 AM,69.8,68.0,94,29.78,1.5,Calm,Calm,-,N/A,,Overcast,0,2013-09-01 07:42:00
3:54 AM,69.1,68.0,96,29.78,1.5,Calm,Calm,-,N/A,,Overcast,0,2013-09-01 07:54:00
4:09 AM,69.8,68.0,94,29.79,3.0,Calm,Calm,-,N/A,,Overcast,0,2013-09-01 08:09:00
4:15 AM,69.8,68.0,94,29.79,4.0,Calm,Calm,-,N/A,,Overcast,0,2013-09-01 08:15:00
4:54 AM,70.0,69.1,97,29.79,4.0,Calm,Calm,-,0.00,Rain,Light Rain,0,2013-09-01 08:54:00
5:21 AM,69.8,68.0,94,29.80,1.8,Calm,Calm,-,0.00,,Overcast,0,2013-09-01 09:21:00
5:29 AM,69.8,68.0,94,29.80,1.2,Calm,Calm,-,0.00,,Overcast,0,2013-09-01 09:29:00
5:32 AM,69.8,68.0,94,29.80,2.0,Calm,Calm,-,0.00,,Overcast,0,2013-09-01 09:32:00
5:40 AM,68.0,66.2,94,29.81,1.2,Calm,Calm,-,0.00,,Mostly Cloudy,0,2013-09-01 09:40:00
5:47 AM,68.0,66.2,94,29.81,0.5,Calm,Calm,-,0.00,Fog,Fog,0,2013-09-01 09:47:00
5:54 AM,68.0,66.9,96,29.81,0.5,Calm,Calm,-,0.00,Fog,Fog,0,2013-09-01 09:54:00
6:07 AM,66.2,66.2,100,29.82,0.8,NW,3.5,-,N/A,,Overcast,310,2013-09-01 10:07:00
6:16 AM,68.0,66.2,94,29.82,0.2,NW,3.5,-,N/A,Fog,Fog,310,2013-09-01 10:16:00
6:52 AM,68.0,68.0,100,29.83,1.0,Calm,Calm,-,N/A,,Mist,0,2013-09-01 10:52:00
6:54 AM,68.0,68.0,100,29.83,1.5,Calm,Calm,-,N/A,,Overcast,0,2013-09-01 10:54:00
6:58 AM,69.8,68.0,94,29.83,3.0,Calm,Calm,-,N/A,,Overcast,0,2013-09-01 10:58:00
7:07 AM,69.8,68.0,94,29.84,3.0,Calm,Calm,-,N/A,,Overcast,0,2013-09-01 11:07:00
7:25 AM,69.8,69.8,100,29.84,4.0,Calm,Calm,-,N/A,,Scattered Clouds,0,2013-09-01 11:25:00
7:54 AM,72.0,69.1,91,29.85,6.0,NNW,3.5,-,N/A,,Clear,330,2013-09-01 11:54:00
8:54 AM,75.0,70.0,84,29.86,10.0,Calm,Calm,-,N/A,,Clear,0,2013-09-01 12:54:00
9:54 AM,78.1,68.0,71,29.86,10.0,NE,3.5,-,N/A,,Partly Cloudy,40,2013-09-01 13:54:00
10:54 AM,80.1,66.0,62,29.86,10.0,ENE,4.6,-,N/A,,Clear,60,2013-09-01 14:54:00
11:54 AM,81.0,66.9,62,29.86,10.0,ESE,3.5,-,N/A,,Mostly Cloudy,120,2013-09-01 15:54:00
12:54 PM,81.0,66.9,62,29.86,10.0,ESE,4.6,-,N/A,,Overcast,120,2013-09-01 16:54:00
1:24 PM,73.4,69.8,88,29.87,1.8,North,6.9,-,0.12,Rain,Heavy Rain,360,2013-09-01 17:24:00
1:29 PM,73.4,69.8,88,29.87,3.0,North,5.8,-,0.14,Rain,Rain,360,2013-09-01 17:29:00
1:54 PM,78.1,71.1,79,29.86,10.0,Calm,Calm,-,0.15,,Mostly Cloudy,0,2013-09-01 17:54:00
2:54 PM,78.1,69.1,74,29.86,10.0,Calm,Calm,-,N/A,,Overcast,0,2013-09-01 18:54:00
3:54 PM,79.0,68.0,69,29.87,10.0,Variable,3.5,-,N/A,,Mostly Cloudy,0,2013-09-01 19:54:00
4:54 PM,82.0,66.0,58,29.86,10.0,ESE,4.6,-,N/A,,Clear,110,2013-09-01 20:54:00
5:54 PM,80.1,69.1,69,29.87,10.0,ESE,6.9,-,N/A,,Scattered Clouds,120,2013-09-01 21:54:00
6:54 PM,77.0,70.0,79,29.87,10.0,SE,3.5,-,N/A,,Mostly Cloudy,140,2013-09-01 22:54:00
7:37 PM,75.2,68.0,78,29.89,10.0,SE,9.2,-,N/A,,Overcast,130,2013-09-01 23:37:00
7:54 PM,73.9,68.0,82,29.90,10.0,ESE,9.2,-,N/A,,Overcast,120,2013-09-01 23:54:00
8:07 PM,73.4,69.8,88,29.90,10.0,SE,6.9,-,N/A,,Overcast,130,2013-09-02 00:07:00
8:54 PM,72.0,69.1,91,29.91,10.0,Calm,Calm,-,0.00,Rain,Light Rain,0,2013-09-02 00:54:00
9:54 PM,71.1,69.1,93,29.91,10.0,Calm,Calm,-,0.00,Rain,Light Rain,0,2013-09-02 01:54:00
10:54 PM,71.1,69.1,93,29.92,10.0,Calm,Calm,-,0.00,,Overcast,0,2013-09-02 02:54:00
11:13 PM,71.6,69.8,94,29.92,9.0,Calm,Calm,-,0.00,Rain,Light Rain,0,2013-09-02 03:13:00
11:54 PM,71.1,69.1,93,29.90,10.0,Calm,Calm,-,0.00,,Overcast,0,2013-09-02 03:54:00